This is the latest recevied weather packets stored in our database for station/object DF7ER-12. If no packets are shown the sender has not sent any weather packets the latest 10 day(s).
| Time | Temp. | Humidity | Pressure | Rain* | Wind** | Luminosity | Snow |
|---|---|---|---|---|---|---|---|
| 1788512765 | 23.89° C | 92% | 997.2 hPa | - | - | - | - |
| 1788512465 | 23.89° C | 93% | 997.3 hPa | - | - | - | - |
| 1788512165 | 23.89° C | 92% | 997.2 hPa | - | - | - | - |
| 1788511865 | 23.89° C | 94% | 997.2 hPa | - | - | - | - |
| 1788511565 | 23.89° C | 92% | 997.3 hPa | - | - | - | - |
| 1788511265 | 23.33° C | 95% | 997.3 hPa | - | - | - | - |
| 1788510965 | 23.89° C | 94% | 997.4 hPa | - | - | - | - |
| 1788510665 | 23.33° C | 94% | 997.4 hPa | - | - | - | - |
| 1788510365 | 23.33° C | 95% | 997.3 hPa | - | - | - | - |
| 1788510075 | 23.33° C | 95% | 997.5 hPa | - | - | - | - |
| 1788509765 | 23.33° C | 96% | 997.5 hPa | - | - | - | - |
| 1788509465 | 23.89° C | 94% | 997.3 hPa | - | - | - | - |
| 1788509165 | 23.33° C | 96% | 997.5 hPa | - | - | - | - |
| 1788508865 | 23.33° C | 96% | 997.4 hPa | - | - | - | - |
| 1788508565 | 23.33° C | 97% | 997.7 hPa | - | - | - | - |
| 1788508265 | 22.78° C | 98% | 997.7 hPa | - | - | - | - |
| 1788507965 | 22.78° C | 98% | 997.7 hPa | - | - | - | - |
| 1788507665 | 22.78° C | 98% | 997.8 hPa | - | - | - | - |
| 1788507365 | 22.78° C | 98% | 997.9 hPa | - | - | - | - |
| 1788507065 | 22.78° C | 99% | 998.1 hPa | - | - | - | - |
| 1788506776 | 22.78° C | 98% | 998.1 hPa | - | - | - | - |
| 1788506465 | 22.78° C | 98% | 998.1 hPa | - | - | - | - |
| 1788506165 | 22.78° C | 99% | 998.1 hPa | - | - | - | - |
| 1788505865 | 22.78° C | 98% | 998.3 hPa | - | - | - | - |
| 1788505565 | 22.78° C | 99% | 998.3 hPa | - | - | - | - |
* Rain since midnight (hover to see other rain measurements)
** Current wind speed in m/s (hover to see current wind gust speed)